When you browse on this site, cookies collect data to enhance your experience and personalize the content and advertising you see.
Visit our Privacy Policy to learn more. By continuing to use the site, you agree to this use of cookies and data.
  • In Latvia
  • List of Countries
  • For 7 days
  • Water Temperature
  • Weather Map
  • Weather Widgets
  • user-avatar
    Login

    Hourly Weather Lankaran

    Today, 28 May, Thursday

    Time Temperature Precipitation Wind Pressure Humidity
    00:00 +13°C° 0 mm 1 mps 636 mmHg 71%
    01:00 +12°C° 0 mm 1 mps 635 mmHg 72%
    02:00 +12°C° 0 mm 1 mps 635 mmHg 73%
    03:00 +10°C° 0 mm 0 mps 635 mmHg 75%
    04:00 +12°C° 0 mm 0 mps 635 mmHg 71%
    05:00 +13°C° 0 mm 0 mps 636 mmHg 68%
    06:00 +14°C° 0 mm 0 mps 636 mmHg 65%
    07:00 +18°C° 0 mm 1 mps 637 mmHg 59%
    08:00 +19°C° 0 mm 1 mps 637 mmHg 54%
    09:00 +20°C° 0 mm 2 mps 637 mmHg 48%
    10:00 +21°C° 0 mm 2 mps 637 mmHg 49%
    11:00 +22°C° 0 mm 3 mps 637 mmHg 49%
    12:00 +22°C° 0 mm 3 mps 638 mmHg 49%
    13:00 +22°C° 0.1 mm 3 mps 637 mmHg 49%
    14:00 +22°C° 0.1 mm 3 mps 636 mmHg 50%
    15:00 +22°C° 0.1 mm 3 mps 636 mmHg 50%
    16:00 +21°C° 0 mm 2 mps 635 mmHg 56%
    17:00 +19°C° 0 mm 2 mps 635 mmHg 61%
    18:00 +19°C° 0 mm 1 mps 635 mmHg 67%
    19:00 +18°C° 0 mm 1 mps 634 mmHg 67%
    20:00 +18°C° 0 mm 1 mps 634 mmHg 68%
    21:00 +16°C° 0 mm 1 mps 634 mmHg 69%
    22:00 +15°C° 0 mm 1 mps 634 mmHg 69%
    23:00 +15°C° 0 mm 1 mps 633 mmHg 69%

    Tomorrow, 29 May, Friday

    Time Temperature Precipitation Wind Pressure Humidity
    00:00 +15°C° 0 mm 1 mps 633 mmHg 70%
    01:00 +15°C° 0 mm 1 mps 633 mmHg 69%
    02:00 +15°C° 0 mm 1 mps 633 mmHg 69%
    03:00 +14°C° 0 mm 1 mps 632 mmHg 68%
    04:00 +16°C° 0 mm 1 mps 633 mmHg 66%
    05:00 +18°C° 0 mm 1 mps 634 mmHg 63%
    06:00 +20°C° 0 mm 1 mps 634 mmHg 61%
    07:00 +21°C° 0 mm 1 mps 634 mmHg 56%
    08:00 +23°C° 0 mm 1 mps 635 mmHg 52%
    09:00 +24°C° 0 mm 2 mps 635 mmHg 47%
    10:00 +25°C° 0 mm 2 mps 635 mmHg 45%
    11:00 +26°C° 0 mm 3 mps 635 mmHg 43%
    12:00 +27°C° 0 mm 3 mps 635 mmHg 42%
    13:00 +27°C° 0 mm 3 mps 634 mmHg 42%
    14:00 +27°C° 0 mm 3 mps 634 mmHg 43%
    15:00 +26°C° 0 mm 3 mps 633 mmHg 44%
    16:00 +25°C° 0.1 mm 3 mps 633 mmHg 48%
    17:00 +22°C° 0.1 mm 3 mps 632 mmHg 51%
    18:00 +20°C° 0.1 mm 3 mps 632 mmHg 55%
    19:00 +19°C° 0 mm 2 mps 632 mmHg 54%
    20:00 +19°C° 0 mm 2 mps 631 mmHg 53%
    21:00 +19°C° 0 mm 1 mps 631 mmHg 52%
    22:00 +18°C° 0 mm 2 mps 631 mmHg 49%
    23:00 +18°C° 0 mm 3 mps 631 mmHg 46%

    Day after tomorrow, 30 May, Saturday

    Time Temperature Precipitation Wind Pressure Humidity
    00:00 +19°C° 0 mm 3 mps 631 mmHg 43%
    01:00 +18°C° 0 mm 3 mps 630 mmHg 42%
    02:00 +18°C° 0 mm 2 mps 630 mmHg 41%
    03:00 +18°C° 0 mm 2 mps 630 mmHg 39%
    04:00 +18°C° 0 mm 2 mps 630 mmHg 42%
    05:00 +19°C° 0 mm 2 mps 631 mmHg 44%
    06:00 +20°C° 0 mm 2 mps 631 mmHg 47%
    07:00 +21°C° 0 mm 2 mps 632 mmHg 44%
    08:00 +24°C° 0 mm 2 mps 633 mmHg 42%
    09:00 +25°C° 0 mm 3 mps 633 mmHg 40%
    10:00 +26°C° 0 mm 4 mps 634 mmHg 39%
    11:00 +26°C° 0 mm 4 mps 634 mmHg 40%
    12:00 +27°C° 0 mm 4 mps 634 mmHg 41%
    13:00 +25°C° 0.1 mm 4 mps 633 mmHg 48%
    14:00 +23°C° 0.1 mm 5 mps 633 mmHg 55%
    15:00 +21°C° 0.1 mm 5 mps 632 mmHg 62%
    16:00 +19°C° 0 mm 4 mps 632 mmHg 69%
    17:00 +18°C° 0 mm 4 mps 632 mmHg 75%
    18:00 +16°C° 0 mm 3 mps 631 mmHg 81%
    19:00 +15°C° 0 mm 2 mps 632 mmHg 85%
    20:00 +14°C° 0 mm 2 mps 632 mmHg 88%
    21:00 +12°C° 0 mm 1 mps 632 mmHg 91%
    22:00 +12°C° 0 mm 1 mps 632 mmHg 91%
    23:00 +12°C° 0 mm 2 mps 632 mmHg 90%

    31 May, Sunday

    Time Temperature Precipitation Wind Pressure Humidity
    00:00 +10°C° 0 mm 2 mps 632 mmHg 90%
    01:00 +10°C° 0 mm 2 mps 632 mmHg 89%
    02:00 +9°C° 0 mm 2 mps 632 mmHg 88%
    03:00 +10°C° 0 mm 1 mps 632 mmHg 86%
    04:00 +11°C° 0 mm 1 mps 633 mmHg 84%
    05:00 +12°C° 0 mm 1 mps 633 mmHg 81%
    06:00 +12°C° 0 mm 1 mps 634 mmHg 78%
    07:00 +14°C° 0 mm 2 mps 634 mmHg 72%
    08:00 +15°C° 0 mm 2 mps 635 mmHg 65%
    09:00 +17°C° 0 mm 3 mps 636 mmHg 59%
    10:00 +17°C° 0 mm 3 mps 636 mmHg 58%
    11:00 +18°C° 0 mm 4 mps 636 mmHg 56%
    12:00 +19°C° 0 mm 4 mps 636 mmHg 55%
    13:00 +18°C° 0 mm 4 mps 635 mmHg 57%
    14:00 +18°C° 0 mm 4 mps 635 mmHg 58%
    15:00 +18°C° 0 mm 4 mps 635 mmHg 60%
    16:00 +15°C° 0 mm 4 mps 634 mmHg 64%
    17:00 +14°C° 0 mm 3 mps 634 mmHg 69%
    18:00 +14°C° 0 mm 2 mps 633 mmHg 74%
    19:00 +13°C° 0 mm 2 mps 633 mmHg 77%
    20:00 +12°C° 0 mm 1 mps 633 mmHg 79%
    21:00 +11°C° 0 mm 1 mps 633 mmHg 82%
    22:00 +10°C° 0 mm 1 mps 633 mmHg 82%
    23:00 +10°C° 0 mm 1 mps 633 mmHg 82%

    1 June, Monday

    Time Temperature Precipitation Wind Pressure Humidity
    00:00 +10°C° 0 mm 1 mps 633 mmHg 81%
    01:00 +9°C° 0 mm 0 mps 633 mmHg 82%
    02:00 +8°C° 0 mm 0 mps 632 mmHg 83%
    03:00 +8°C° 0 mm 0 mps 632 mmHg 83%
    04:00 +9°C° 0 mm 0 mps 633 mmHg 80%
    05:00 +10°C° 0 mm 0 mps 633 mmHg 76%
    06:00 +11°C° 0 mm 0 mps 633 mmHg 73%
    07:00 +14°C° 0 mm 1 mps 634 mmHg 68%
    08:00 +16°C° 0 mm 2 mps 634 mmHg 63%
    09:00 +17°C° 0 mm 2 mps 635 mmHg 58%
    10:00 +18°C° 0 mm 2 mps 635 mmHg 56%
    11:00 +19°C° 0 mm 3 mps 635 mmHg 55%
    12:00 +20°C° 0 mm 3 mps 635 mmHg 53%
    13:00 +20°C° 0 mm 3 mps 635 mmHg 53%
    14:00 +21°C° 0 mm 3 mps 634 mmHg 53%
    15:00 +21°C° 0 mm 3 mps 634 mmHg 53%
    16:00 +20°C° 0 mm 2 mps 633 mmHg 58%
    17:00 +19°C° 0 mm 2 mps 633 mmHg 64%
    18:00 +19°C° 0 mm 1 mps 632 mmHg 69%
    19:00 +18°C° 0 mm 1 mps 632 mmHg 71%
    20:00 +15°C° 0 mm 1 mps 632 mmHg 73%
    21:00 +13°C° 0 mm 0 mps 631 mmHg 76%
    22:00 +14°C° 0 mm 1 mps 631 mmHg 75%
    23:00 +14°C° 0 mm 1 mps 631 mmHg 74%

    2 June, Tuesday

    Time Temperature Precipitation Wind Pressure Humidity
    00:00 +14°C° 0 mm 1 mps 631 mmHg 73%
    01:00 +14°C° 0 mm 1 mps 631 mmHg 71%
    02:00 +14°C° 0 mm 1 mps 630 mmHg 69%
    03:00 +14°C° 0 mm 1 mps 630 mmHg 67%
    04:00 +15°C° 0 mm 1 mps 631 mmHg 64%
    05:00 +16°C° 0 mm 1 mps 631 mmHg 60%
    06:00 +19°C° 0 mm 1 mps 632 mmHg 57%
    07:00 +21°C° 0 mm 1 mps 632 mmHg 49%
    08:00 +23°C° 0 mm 2 mps 633 mmHg 42%
    09:00 +25°C° 0 mm 2 mps 634 mmHg 34%
    10:00 +26°C° 0 mm 2 mps 634 mmHg 33%
    11:00 +27°C° 0 mm 3 mps 634 mmHg 31%
    12:00 +28°C° 0 mm 3 mps 634 mmHg 29%
    13:00 +28°C° 0 mm 3 mps 633 mmHg 29%
    14:00 +28°C° 0 mm 4 mps 633 mmHg 29%
    15:00 +29°C° 0 mm 5 mps 633 mmHg 28%
    16:00 +27°C° 0 mm 4 mps 632 mmHg 33%
    17:00 +26°C° 0 mm 3 mps 631 mmHg 38%
    18:00 +25°C° 0 mm 2 mps 631 mmHg 43%
    19:00 +23°C° 0 mm 2 mps 630 mmHg 39%
    20:00 +21°C° 0 mm 3 mps 630 mmHg 35%
    21:00 +20°C° 0 mm 3 mps 630 mmHg 30%
    22:00 +19°C° 0 mm 3 mps 629 mmHg 32%
    23:00 +18°C° 0 mm 2 mps 629 mmHg 33%
    Show more